FW3835 Weather Reports


Display with metric or nautical units.
time (UTC)temp
F
wind
direction
speed
MPH
gust
MPH
rain 1hr
in
rain 24hr
in
rain mn
in
humidity
%
barometer
mb
20260831231529 76 190 1.0 10.0 0.00 0.24 0.24 39 1010.5
20260831230015 77 170 2.0 10.0 0.00 0.24 0.24 38 1010.5
20260831224516 78 195 2.0 8.0 0.00 0.24 0.24 35 1010.5
20260831223021 78 157 4.0 11.0 0.00 0.24 0.24 34 1010.7
20260831221524 79 178 3.0 8.0 0.00 0.24 0.24 33 1010.7
20260831220031 79 123 4.0 10.0 0.00 0.24 0.24 33 1010.7
20260831214512 79 201 3.0 11.0 0.00 0.24 0.24 33 1010.8
20260831213016 79 163 3.0 7.0 0.00 0.24 0.24 34 1010.8
20260831211535 80 165 1.0 8.0 0.00 0.24 0.24 32 1010.9
20260831210030 80 164 2.0 8.0 0.00 0.24 0.24 34 1010.9
20260831204530 79 137 3.0 9.0 0.00 0.24 0.24 34 1011.2
20260831203012 80 279 1.0 8.0 0.00 0.24 0.24 34 1011.3
20260831201523 80 159 2.0 9.0 0.00 0.24 0.24 34 1011.4
20260831200028 79 161 3.0 11.0 0.00 0.24 0.24 36 1011.5
20260831194503 79 126 1.0 9.0 0.00 0.24 0.24 37 1011.4
20260831193012 79 123 4.0 9.0 0.00 0.24 0.24 39 1011.6
20260831191518 79 172 0.0 9.0 0.00 0.24 0.24 39 1011.7
20260831190022 78 46 1.0 6.0 0.00 0.24 0.24 41 1011.8
20260831184530 78 190 3.0 8.0 0.00 0.24 0.24 45 1012.0
20260831183008 78 336 1.0 4.0 0.00 0.24 0.24 46 1011.9
20260831181512 77 272 1.0 5.0 0.00 0.24 0.24 47 1011.8
20260831180016 77 318 1.0 10.0 0.00 0.24 0.24 50 1012.1
20260831174524 75 277 2.0 9.0 0.00 0.24 0.24 51 1012.3
20260831173029 76 226 2.0 10.0 0.00 0.24 0.24 54 1012.4
20260831171509 74 188 3.0 10.0 0.00 0.24 0.24 57 1012.2
20260831170016 74 164 1.0 7.0 0.00 0.24 0.24 61 1012.3
20260831164524 74 348 1.0 14.0 0.00 0.24 0.24 61 1012.3
20260831163027 74 168 2.0 7.0 0.00 0.24 0.24 65 1012.2
20260831161534 73 51 2.0 6.0 0.00 0.24 0.24 64 1012.1
20260831160011 73 153 2.0 5.0 0.00 0.24 0.24 68 1011.8
20260831154545 72 182 1.0 6.0 0.00 0.24 0.24 69 1011.7
20260831153025 71 159 1.0 6.0 0.00 0.24 0.24 70 1011.6
20260831151532 71 69 1.0 4.0 0.00 0.24 0.24 71 1011.4
20260831150031 70 332 0.0 5.0 0.00 0.24 0.24 73 1011.4
20260831144514 70 360 1.0 5.0 0.00 0.24 0.24 74 1011.2
20260831143021 68 316 1.0 5.0 0.00 0.24 0.24 76 1011.0
20260831141528 67 305 1.0 4.0 0.00 0.24 0.24 80 1010.9
20260831140033 65 340 0.0 5.0 0.00 0.24 0.24 82 1010.8
20260831134531 64 312 2.0 7.0 0.00 0.25 0.24 82 1010.7
20260831133019 64 329 1.0 5.0 0.00 0.25 0.24 82 1010.7
20260831131524 63 335 1.0 8.0 0.00 0.25 0.24 82 1010.5
20260831130030 63 319 1.0 5.0 0.00 0.25 0.24 82 1010.4
20260831124531 63 319 1.0 4.0 0.00 0.25 0.24 82 1010.1
20260831123032 63 318 0.0 4.0 0.00 0.25 0.24 82 1009.9
20260831121517 63 277 2.0 4.0 0.00 0.25 0.24 82 1009.6
20260831120036 64 348 1.0 5.0 0.00 0.25 0.24 82 1009.3
20260831114532 63 304 2.0 8.0 0.00 0.25 0.24 82 1008.9
20260831113035 64 352 3.0 8.0 0.00 0.25 0.24 82 1008.4
20260831111532 66 308 1.0 6.0 0.00 0.25 0.24 82 1008.1
20260831110033 68 5 2.0 5.0 0.00 0.25 0.24 82 1007.8
20260831104506 67 154 0.0 5.0 0.00 0.25 0.24 82 1007.5
20260831103009 67 153 1.0 3.0 0.00 0.25 0.24 82 1007.4
20260831101522 67 153 0.0 3.0 0.00 0.25 0.24 82 1007.2
20260831100021 67 153 1.0 6.0 0.00 0.25 0.24 82 1007.1
20260831094527 67 150 1.0 6.0 0.00 0.25 0.24 82 1007.0
20260831093008 67 133 1.0 4.0 0.00 0.25 0.24 82 1006.8
20260831091524 67 133 1.0 5.0 0.00 0.25 0.24 82 1007.0
20260831090014 67 121 2.0 8.0 0.00 0.25 0.24 82 1006.8
20260831084523 67 82 2.0 6.0 0.01 0.25 0.24 82 1006.7
20260831083031 66 163 1.0 5.0 0.12 0.25 0.24 82 1006.9
20260831081520 66 165 1.0 5.0 0.17 0.25 0.24 82 1007.1
20260831080033 67 165 2.0 7.0 0.18 0.25 0.24 82 1006.8
20260831074519 67 196 2.0 9.0 0.17 0.24 0.23 82 1006.7
20260831073055 67 165 2.0 8.0 0.06 0.13 0.12 82 1008.7
20260831071529 67 115 1.0 7.0 0.01 0.08 0.07 82 1008.0
20260831070008 67 142 1.0 3.0 0.00 0.07 0.06 82 1007.2
20260831064514 67 101 1.0 8.0 0.00 0.07 0.06 81 1007.4
20260831063025 66 123 1.0 8.0 0.03 0.07 0.06 81 1007.3
20260831061529 66 118 2.0 6.0 0.06 0.07 0.06 81 1007.4
20260831060034 66 180 1.0 7.0 0.06 0.07 0.06 81 1007.2
20260831054515 66 103 2.0 9.0 0.06 0.07 0.06 80 1007.4
20260831053017 66 49 3.0 9.0 0.03 0.04 0.03 79 1007.2
20260831051526 66 76 4.0 13.0 0.00 0.01 0.00 77 1007.6
20260831050029 67 95 2.0 14.0 0.00 0.01 0.00 75 1007.6
20260831044541 67 123 5.0 13.0 0.00 0.01 0.01 73 1007.6
20260831043014 67 84 3.0 11.0 0.00 0.01 0.01 72 1007.8
20260831041519 67 71 4.0 11.0 0.00 0.01 0.01 72 1008.1
20260831040030 67 98 3.0 12.0 0.00 0.01 0.01 72 1008.2
20260831034530 67 101 2.0 7.0 0.00 0.01 0.01 72 1008.6
20260831033038 67 78 4.0 10.0 0.00 0.01 0.01 71 1008.5
20260831031517 67 85 4.0 10.0 0.00 0.01 0.01 71 1008.8
20260831030023 68 124 4.0 13.0 0.00 0.01 0.01 71 1009.0
20260831024530 68 80 4.0 10.0 0.00 0.01 0.01 71 1009.6
20260831023029 68 109 5.0 12.0 0.00 0.01 0.01 70 1009.2
20260831021543 68 90 5.0 13.0 0.00 0.01 0.01 70 1008.9
20260831020016 68 148 5.0 12.0 0.00 0.01 0.01 69 1008.8
20260831014524 68 133 2.0 10.0 0.00 0.01 0.01 69 1008.4
20260831013028 68 103 6.0 11.0 0.00 0.01 0.01 69 1008.3
20260831011541 68 71 4.0 8.0 0.00 0.01 0.01 69 1008.7
20260831010014 68 106 4.0 11.0 0.00 0.01 0.01 68 1008.9
20260831004520 68 111 5.0 14.0 0.00 0.01 0.01 68 1008.6
20260831003026 68 105 4.0 10.0 0.00 0.01 0.01 68 1008.3
20260831001536 69 44 6.0 13.0 0.00 0.01 0.01 68 1008.3
20260831000033 69 71 5.0 10.0 0.00 0.01 0.01 68 1008.6
20260830234522 69 116 6.0 11.0 0.00 0.01 0.01 68 1008.6
20260830233026 69 112 6.0 13.0 0.00 0.01 0.01 68 1008.6